Погода в Хуте

Россия / Республика Тыва     52°36′40″N   94°33′09″E
темп.,
°C
ветер,
м/с
пор.,
м/с
влажн.,
%
обл.,
%
осадки,
мм/ч
давл.,
гПа
погр.,
м
9 марта, вт
вт901:00−9юз338733 0.0 102065
04:00−8зюз2391100 0.0 102178
07:00−10зюз2289100 0.0 102429
10:00−6юз3489100 0.1 1025243
13:00−2зюз41071100 0.1 10251625
16:00−2юз487682 0.3 10251301
19:00−8юз229267 0.3 102831
22:00−10юз119368 0.0 103021
10 марта, ср
ср1001:00−12зюз009573 0.0 102921
04:00−13зсз009313 0.0 102821
07:00−13зюз119028 0.0 102821
10:00−5ююз12855 0.0 1025243
13:00−2ююз23866 0.0 1023590
16:00−2юз238225 0.0 1022573
19:00−9юз229316 0.0 102425
22:00−11юз22880 0.0 102628
11 марта, чт
чт1101:00−12юз33830 0.0 102537
04:00−12юз338647 0.0 102442
07:00−13юз348757 0.0 102359
10:00−7юз3485100 0.0 1021181
13:00−2ююз3480100 0.0 1019392
16:00−1ююз347978 0.0 1017389
19:00−7зюз239089 0.0 101736
22:00−6зюз2287100 0.1 101937
12 марта, пт
пт1201:00−6сз1296100 0.9 102138
04:00−7ссв1196100 1.9 102424
07:00−9всв1198100 2.3 102621
10:00−5ююв128799 0.0 1024336
13:00−2ю238691 0.0 1019724
16:00−2ююз258182 0.0 1016775
19:00−7зюз339486 0.0 101648
22:00−8юз229297 0.0 101626
13 марта, сб
сб1301:00−10зюз229083 0.0 101421
04:00−11сз119099 0.0 101321
07:00−10ссз2296100 0.1 101561
10:00−10ссв2490100 0.3 1016522
13:00−11ссв3490100 1.1 1020631
16:00−13св2286100 0.5 1024553
19:00−17св2393100 0.6 1030308
22:00−22ссв2297100 0.0 103557